星链-36578(STARLINK-36578)

导读

STARLINK-36578是美国太空探索技术公司(SpaceX)星链(Starlink)星座的一颗低轨卫星,于2026年1月25日发射。星链项目旨在通过大规模低轨卫星组网,为全球尤其是基础设施匮乏地区提供高速低延迟宽带互联网服务,该卫星的入轨将进一步扩展星链星座的全球覆盖能力与网络服务容量。

基本信息
目录编号:
67571
目录名称:
STARLINK-36578
国际标识:
2026-016L
轨道中心:
EARTH
卫星名称:
星链-36578
卫星全名:
星链-36578(STARLINK-36578)
卫星状态:
在轨 (已飞行222 天)
发射日期:
2026-01-25 UTC
国别 :
美国 (US)
星等 :
--
轨道信息
数据来源 国际轨道数据
星历时间: 2026-09-03T21:55:39+0800
16小时前
查看轨道信息
半长轴: 6843.666km
偏心率: 0.0000747
轨道倾角: 97.285°
近地点辐角 125.571°
升交点赤经 305.424°
平近点角 234.561°
近地点: 465.017km
远地点: 466.041km
周期: 93.906分钟
每日圈数: 15.334499
详细信息
固有亮度:
5
最大亮度:
2.5
卫星平台:
Starlink V1.0
覆盖范围:
全球
运营商:
太空探索技术公司
运营商所在国:
美国
制造商(研发单位):
太空探索技术公司
制造商所在国:
美国
使用方式:
暂无
卫星简介
Starlink 计划是 SpaceX 推出的全球卫星互联网项目,通过发射低轨道卫星,为全球尤其是偏远地区提供高速、低延迟的互联网服务。自 2019 年起,Starlink 已部署数千颗卫星,旨在缩小全球数字鸿沟,推动互联网普及。该项目还为军事、航空等行业提供通信支持,带来广泛经济效益。
2D轨道图
3D轨道图
轨道高度分析图
轨道倾角分析图
轨道综合分析图
查看轨道综合分析图
交会数据列表
事件ID 空间交会对象 最接近时刻(TCA) 交会距离 交会风险概率(CRP) 交会风险指数(CRI) 操作
CDM_260903-121206-533806-757122
2026-09-03T
12:12:36+0000
2.407 km
极远距离
1.855763E-6 低风险 0.4
CDM_260903-041705-318006-757121
2026-09-03T
04:17:49+0000
2.302 km
极远距离
1.76326E-6 低风险 0.4